Location: Newark
(47.5833°N, 8.1500°E)
Time: 08:40:28
(UTC+00:00)

Vanguard 1 - Pass Details

Date: 28 October 2020
Orbit: 650 x 3833 km, 34.2° (Epoch: 29 November)

Event Time Altitude Azimuth Distance (km) Brightness Sun altitude
Rises 16:25:40 0° 271° (W) 7,966 16.4 -2.4°
Reaches altitude 10° 16:31:42 10° 267° (W) 6,818 16.1 -3.4°
Maximum altitude 16:50:57 44° 205° (SSW) 3,627 13.3 -6.5°
Drops below altitude 10° 17:03:10 10° 139° (SE) 4,433 13.1 -8.6°
Sets 17:06:09 0° 132° (SE) 5,072 13.4 -9.0°
